User: anonymous   Login
Location: *
(90.0000°N, 180.0000°W)
Time: 23:26:17
(UTC+02:00)
Language:

Cosmos 1825 - Orbit

View from above orbital plane
View from above orbital plane
View from above satellite
View from above satellite

Ground track
Ground track

The orbit data is extracted from the following two-line orbital elements,

1 17566U 87024A   15238.52484404  .00001876  00000-0  95154-4 0  9996
2 17566 082.5042 224.2005 0004231 017.4427 342.6951 15.16349691553635
Epoch (UTC): 26 August 2015 12:35:46
Eccentricity: 0.0004231
inclination: 82.5042°
perigee height: 514 km
apogee height: 520 km
right ascension of ascending node: 224.2005°
argument of perigee: 17.4427°
revolutions per day: 15.16349691
mean anomaly at epoch: 342.6951°
orbit number at epoch: 55363

The dashed part of the orbit path shows where the satellite is in the earth's shadow,  

DLR